Find Tianmu 1-14

NORAD ID: 58648 Int'l Des: 2023-205 Owner: TIANMU Country: CN operational
LEOCIRCULARRETROGRADESSO

Live-Position

3D-Globus wird geladen...

Über Tianmu 1-14

Beschreibung wird geladen...

Nächste Überflüge

Passes for default location (London). Set your location on the main map for personalized predictions.

Höhenverlauf

Loading altitude history...

Zweizeiliger Elementsatz

1 58648U 23205D 26107.27722029 .00003679 00000-0 14435-3 0 9995
2 58648 97.3445 129.0655 0008391 175.4048 184.7269 15.26332201128219
Epoch: 17. Apr. 2026 • Age: 13 hours

Aktueller Status

Höhe 486.0 km
Geschwindigkeit 7.63 km/s
Subsatellitenpunkt 32.88°N, 170.17°E
Startdatum 25. Dez. 2023
Alter 2.3 years
Typ other

Technische Details

Klassifizierung Payload
Masse 50.00 kg
Trockenmasse 50.00 kg
Gesamtmasse 50.00 kg
Länge 1.50 m
Durchmesser 1.00 m
Spannweite 1.50 m
Form Box
Hersteller TIANMU
Bus-Typ Tianmu
Phasenstatus In Orbit
Besitzer/Staat TIANMU/CN

Most Searched